(340458) = 2006 HF7

Discovered at Anderson Mesa on 2006-04-19 by LONEOS.

Orbit

Orbit type: Main Belt

Note: WebGL enabled browser required.

epoch2023-09-13.0
epoch JD2460200.5
perihelion date2023-01-30.23485
perihelion JD2459974.73485
argument of perihelion (°)258.82451
ascending node (°)34.94663
inclination (°)21.13890
eccentricity0.3805396
perihelion distance (AU)1.9098515
Tisserand w.r.t. Jupiter3.0
ΔV w.r.t. Earth (km/sec)10.7
semimajor axis (AU)3.0830890
mean anomaly (°)41.10377
mean daily motion (°/day)0.18206430
aphelion distance (AU)4.256
period (years)5.41
P-vector [x]0.36527000
P-vector [y]-0.64926862
P-vector [z]-0.66710425
Q-vector [x]0.90769220
Q-vector [y]0.40743368
Q-vector [z]0.10046230
absolute magnitude15.7
phase slope0.15
uncertainty0
referenceMPEC 2024-A48
observations used348
oppositions10
arc length (days)6523
first opposition used2006
last opposition used2023
residual rms (arc-secs)0.73
perturbers coarse indicatorM-v
perturbers precise indicator003Ek
first observation date used2006-02-07.0
last observation date used2023-12-18.0
computer nameMPCLINUX
JD of orbit computation2456218.921261
perihelion JD uncertainty (days)1.3349E-04
argument of perihelion uncertainty (°)4.1944E-05
ascending node uncertainty (°)2.3656E-05
inclination uncertainty (°)2.6027E-05
eccentricity uncertainty 8.2535E-08
perihelion distance uncertainty (AU)2.2063E-07
Minimum Orbit Intersection Distances (in AU)
for orbit epoch: 2460200.5, reference: E2024-A48
Mercury1.47751
Venus1.24224
Earth1.01913
Mars0.6614
Jupiter1.69103
Saturn5.30794
Uranus14.7421
Neptune26.2125

Observations

358 total observations over interval: 2006 02 07.50054 – 2023 12 18.200300
These data are available for download (format description).

Date (UT) J2000 RA J2000 Dec Magn Location Ref
2006 02 07.50054 14 40 48.78 -08 06 56.8   691 – Steward Observatory, Kitt Peak-Spacewatch MPS 172094
2006 02 07.51301 14 40 49.29 -08 07 01.3   691 – Steward Observatory, Kitt Peak-Spacewatch MPS 172094
2006 02 07.52546 14 40 49.76 -08 07 06.1   691 – Steward Observatory, Kitt Peak-Spacewatch MPS 172094
2006 03 25.41407 14 49 17.66 -12 17 04.5 20.3 V 691 – Steward Observatory, Kitt Peak-Spacewatch MPS 172094
2006 03 25.43136 14 49 17.17 -12 17 09.9 19.8 V 691 – Steward Observatory, Kitt Peak-Spacewatch MPS 172094
2006 03 25.44866 14 49 16.68 -12 17 15.3 19.7 V 691 – Steward Observatory, Kitt Peak-Spacewatch MPS 172094
2006 03 25.45549 14 49 16.52 -12 17 17.5 19.0 R 644 – Palomar Mountain/NEAT MPS 172094
2006 03 25.47348 14 49 16.01 -12 17 23.3 19.4 R 644 – Palomar Mountain/NEAT MPS 172094
2006 03 25.48664 14 49 15.63 -12 17 27.3 19.0 R 644 – Palomar Mountain/NEAT MPS 172094
2006 04 19.23790 14 29 13.63 -14 23 50.8 18.0 R 699 – Lowell Observatory-LONEOS MPS 169970
2006 04 19.26532 14 29 11.75 -14 23 59.1   699 – Lowell Observatory-LONEOS MPS 169970
2006 04 19.29369 14 29 09.74 -14 24 08.0   699 – Lowell Observatory-LONEOS MPS 169970
2006 04 19.32388 14 29 07.66 -14 24 16.7   699 – Lowell Observatory-LONEOS MPS 169970
2006 04 21.33702 14 26 48.87 -14 34 24.5 18.2 V 703 – Catalina Sky Survey MPS 169970
2006 04 21.34681 14 26 48.08 -14 34 27.4 18.1 V 703 – Catalina Sky Survey MPS 169970
2006 04 21.35659 14 26 47.43 -14 34 30.5 18.3 V 703 – Catalina Sky Survey MPS 169970
2006 04 21.36639 14 26 46.60 -14 34 34.2 17.9 V 703 – Catalina Sky Survey MPS 169970
2006 04 24.30889 14 23 16.57 -14 49 17.9 18.0   704 – Lincoln Laboratory ETS, New Mexico MPS 169970
2006 04 24.32045 14 23 15.69 -14 49 20.6 18.1   704 – Lincoln Laboratory ETS, New Mexico MPS 169970
2006 04 24.33307 14 23 14.73 -14 49 25.0 18.3   704 – Lincoln Laboratory ETS, New Mexico MPS 169970
2006 04 24.34494 14 23 13.86 -14 49 27.9 18.6   704 – Lincoln Laboratory ETS, New Mexico MPS 169970
2006 04 28.34707 14 18 17.00 -15 09 20.9 18.2   704 – Lincoln Laboratory ETS, New Mexico MPS 169970
2006 04 28.35766 14 18 16.21 -15 09 24.4 18.8   704 – Lincoln Laboratory ETS, New Mexico MPS 169970
2006 04 28.36854 14 18 15.32 -15 09 28.3 18.8   704 – Lincoln Laboratory ETS, New Mexico MPS 169970
2006 05 01.33749 14 14 29.97 -15 24 08.3 18.5   704 – Lincoln Laboratory ETS, New Mexico MPS 170894
2006 05 01.34775 14 14 29.10 -15 24 10.6 18.7   704 – Lincoln Laboratory ETS, New Mexico MPS 170894
2006 05 01.35800 14 14 28.35 -15 24 13.7 18.2   704 – Lincoln Laboratory ETS, New Mexico MPS 170894
2006 05 01.36836 14 14 27.51 -15 24 17.0 18.2   704 – Lincoln Laboratory ETS, New Mexico MPS 170894
2006 05 01.37861 14 14 26.75 -15 24 20.2 17.8   704 – Lincoln Laboratory ETS, New Mexico MPS 170894
2006 05 04.29789 14 10 43.60 -15 38 42.5 18.8 V G96 – Mt. Lemmon Survey MPS 170894
2006 05 04.30345 14 10 43.14 -15 38 44.1 18.5 V G96 – Mt. Lemmon Survey MPS 170894
2006 05 04.30906 14 10 42.70 -15 38 45.7 18.5 V G96 – Mt. Lemmon Survey MPS 170894
2006 05 04.31469 14 10 42.27 -15 38 47.5 18.4 V G96 – Mt. Lemmon Survey MPS 170894
2006 05 05.25680 14 09 30.42 -15 43 24.9 18.1 R 699 – Lowell Observatory-LONEOS MPS 170894
2006 05 05.27508 14 09 28.99 -15 43 30.9   699 – Lowell Observatory-LONEOS MPS 170894
2006 05 05.29334 14 09 27.61 -15 43 37.3   699 – Lowell Observatory-LONEOS MPS 170894
2006 05 05.31163 14 09 26.08 -15 43 41.2   699 – Lowell Observatory-LONEOS MPS 170894
2006 05 18.16902 13 53 49.11 -16 47 08.7 19.5 R 644 – Palomar Mountain/NEAT MPS 171652
2006 05 18.19063 13 53 47.63 -16 47 15.3 18.6 R 644 – Palomar Mountain/NEAT MPS 171652
2006 05 18.21117 13 53 46.20 -16 47 21.2 18.3 R 644 – Palomar Mountain/NEAT MPS 171652
2006 05 26.18776 13 45 35.48 -17 28 00.3 18.6 R 644 – Palomar Mountain/NEAT MPS 172894
2006 05 26.20949 13 45 34.23 -17 28 06.9 18.3 R 644 – Palomar Mountain/NEAT MPS 172894
2006 05 26.23523 13 45 32.75 -17 28 14.9 18.6 R 644 – Palomar Mountain/NEAT MPS 172894
2007 09 15.39230 03 20 19.50 +17 39 08.9 19.9 V G96 – Mt. Lemmon Survey MPS 223477
2007 09 15.39791 03 20 19.39 +17 39 10.5 20.1 V G96 – Mt. Lemmon Survey MPS 223477
2007 09 15.40354 03 20 19.32 +17 39 12.1 20.2 V G96 – Mt. Lemmon Survey MPS 223477
2007 09 15.40912 03 20 19.24 +17 39 13.8 20.0 V G96 – Mt. Lemmon Survey MPS 223477
2007 10 18.34813 02 58 31.27 +19 35 04.5 20.2 r 699 – Lowell Observatory-LONEOS MPS 223477
2007 10 18.37385 02 58 29.67 +19 35 06.7 19.8 r 699 – Lowell Observatory-LONEOS MPS 223477
2007 10 18.39953 02 58 28.11 +19 35 12.1 20.4 r 699 – Lowell Observatory-LONEOS MPS 223477
2007 10 18.42523 02 58 26.68 +19 35 15.0 19.9 r 699 – Lowell Observatory-LONEOS MPS 223477
2007 10 19.35623 02 57 28.85 +19 37 10.2 20.0 V 691 – Steward Observatory, Kitt Peak-Spacewatch MPS 223477
2007 10 19.37395 02 57 27.67 +19 37 12.0 19.8 V 691 – Steward Observatory, Kitt Peak-Spacewatch MPS 223477
2007 10 19.39169 02 57 26.59 +19 37 14.5 19.9 V 691 – Steward Observatory, Kitt Peak-Spacewatch MPS 223477
2007 11 07.27252 02 36 32.86 +19 59 55.5 20.0   704 – Lincoln Laboratory ETS, New Mexico MPS 224919
2007 11 07.28576 02 36 31.83 +19 59 57.9 20.4   704 – Lincoln Laboratory ETS, New Mexico MPS 224919
2007 11 07.29806 02 36 31.03 +19 59 55.7 20.6   704 – Lincoln Laboratory ETS, New Mexico MPS 224919
2007 11 07.31042 02 36 30.13 +19 59 57.4 20.0   704 – Lincoln Laboratory ETS, New Mexico MPS 224919
2007 11 14.10380 02 29 09.39 +20 01 54.6 19.6 V 691 – Steward Observatory, Kitt Peak-Spacewatch MPS 226893
2007 11 14.12145 02 29 08.22 +20 01 54.6 20.5 V 691 – Steward Observatory, Kitt Peak-Spacewatch MPS 226893
2007 11 14.13909 02 29 07.16 +20 01 55.1 19.8 V 691 – Steward Observatory, Kitt Peak-Spacewatch MPS 226893
2007 11 18.09778 02 25 06.09 +20 02 12.9   691 – Steward Observatory, Kitt Peak-Spacewatch MPS 228297
2007 11 18.11287 02 25 05.16 +20 02 13.0   691 – Steward Observatory, Kitt Peak-Spacewatch MPS 228297
2007 11 18.12796 02 25 04.26 +20 02 13.3   691 – Steward Observatory, Kitt Peak-Spacewatch MPS 228297
2007 11 18.21307 02 24 59.14 +20 02 15.6 19.2 V 703 – Catalina Sky Survey MPS 228297
2007 11 18.22135 02 24 58.60 +20 02 14.9 20.6 V 703 – Catalina Sky Survey MPS 228297
2007 11 18.22256 02 24 58.64 +20 02 14.1 19.8   704 – Lincoln Laboratory ETS, New Mexico MPS 228297
2007 11 18.22972 02 24 58.10 +20 02 13.7 19.7 V 703 – Catalina Sky Survey MPS 228297
2007 11 18.23497 02 24 57.84 +20 02 13.0 20.5   704 – Lincoln Laboratory ETS, New Mexico MPS 228297
2007 11 18.23803 02 24 57.63 +20 02 14.2 20.2 V 703 – Catalina Sky Survey MPS 228297
2007 11 18.24757 02 24 57.06 +20 02 15.2 20.2   704 – Lincoln Laboratory ETS, New Mexico MPS 228297
2007 11 18.25998 02 24 56.34 +20 02 14.0 20.0   704 – Lincoln Laboratory ETS, New Mexico MPS 228297
2007 11 18.27243 02 24 55.54 +20 02 13.7 20.0   704 – Lincoln Laboratory ETS, New Mexico MPS 228297
2011 03 11.40412 12 44 50.71 +15 16 38.4 20.4 V 703 – Catalina Sky Survey MPS 378648
2011 03 11.41037 12 44 50.35 +15 16 39.3 20.4 V 703 – Catalina Sky Survey MPS 378648
2011 03 11.41662 12 44 50.06 +15 16 40.9 20.2 V 703 – Catalina Sky Survey MPS 378648
2011 03 11.42287 12 44 49.77 +15 16 42.9 20.0 V 703 – Catalina Sky Survey MPS 378648
2011 04 02.22173 12 23 46.60 +16 10 36.3 19.4 V G96 – Mt. Lemmon Survey MPS 378648
2011 04 02.22915 12 23 46.14 +16 10 36.6 19.1 V G96 – Mt. Lemmon Survey MPS 378648
2011 04 02.23653 12 23 45.70 +16 10 37.2 19.4 V G96 – Mt. Lemmon Survey MPS 378648
2011 04 02.24397 12 23 45.24 +16 10 37.6 19.1 V G96 – Mt. Lemmon Survey MPS 378648
2011 06 19.27954 11 55 15.540 +08 31 08.10 21.3 w F51 – Pan-STARRS 1, Haleakala MPS 385354
2011 06 19.28481 11 55 15.681 +08 31 04.87 21.3 w F51 – Pan-STARRS 1, Haleakala MPS 385354
2011 06 19.29006 11 55 15.831 +08 31 01.60 21.1 w F51 – Pan-STARRS 1, Haleakala MPS 385354
2011 06 19.29533 11 55 15.974 +08 30 58.12 21.0 w F51 – Pan-STARRS 1, Haleakala MPS 385354
2012 09 11.32730 01 05 49.63 -17 31 40.9 19.4 G G45 – Space Surveillance Telescope, Atom Site MPS 1609764
2012 09 11.40053 01 05 44.75 -17 31 35.6 18.2 G G45 – Space Surveillance Telescope, Atom Site MPS 1609764
